Theta_e
327 327 327 328 328 327 327 327 326 325 326 326 327 326 326 325 324 324 322 321 320 319 318 318 315 313 313 311 307 305 306 308 309 308 307 306 304 302 302 302 302 302 302 302 302 302 302 302 302 302 302 302 302 302 302 302 302 302 302 302 302 302 302 302 302 302 302 302 302 302 302 302 302 301
327 327 326 327 328 326 326 326 325 325 326 326 327 326 326 324 323 322 322 321 320 319 317 317 315 313 312 311 308 306 307 309 310 307 307 306 304 302 302 302 302 302 303 302 302 302 303 303 303 303 303 304 304 304 303 303 303 303 303 303 302 302 302 302 302 302 302 302 302 302 302 302 302 302
326 327 327 327 327 327 327 326 325 325 325 326 327 326 325 323 322 321 320 320 319 318 317 316 315 313 311 310 308 306 307 310 310 307 307 306 304 303 302 303 302 303 303 303 303 303 303 304 304 305 306 306 306 306 307 307 307 307 307 306 306 306 305 304 304 303 303 303 303 303 303 302 302 302
326 326 327 327 326 327 326 326 326 326 325 326 327 325 324 323 322 321 321 319 318 318 317 316 315 313 311 310 307 305 307 310 310 308 307 306 305 304 303 304 303 303 303 303 303 303 304 305 306 307 308 308 309 309 310 310 311 311 311 311 311 310 310 310 309 309 308 308 308 307 307 306 306 305
326 326 326 327 326 326 326 326 326 326 326 326 327 325 325 325 323 321 321 320 318 318 317 316 315 313 311 309 307 305 308 310 310 309 307 307 306 305 305 305 305 305 304 303 303 304 304 305 306 307 308 309 310 311 311 311 311 312 312 312 312 312 312 312 312 312 312 311 311 311 311 311 310 310
325 325 326 326 326 326 327 326 325 326 327 327 327 326 326 325 324 322 322 320 318 318 317 316 314 312 311 309 307 306 308 310 310 310 309 308 307 307 307 306 306 306 305 304 304 304 305 306 307 308 308 309 309 310 310 311 311 311 311 311 311 312 312 312 312 312 312 311 311 311 311 311 311 311
325 325 325 326 326 326 326 326 325 326 326 326 326 326 326 325 324 323 322 320 319 318 316 315 313 311 310 310 308 307 308 310 310 310 309 308 307 307 308 308 308 308 307 306 305 304 305 306 307 308 309 309 309 310 310 310 310 311 311 311 311 311 311 311 311 311 311 311 311 311 311 311 311 311
325 325 325 326 326 326 326 325 325 325 326 326 326 326 325 325 324 323 321 319 319 318 316 315 314 312 310 309 308 308 309 310 310 310 309 309 308 308 308 309 309 309 309 308 306 306 306 307 308 309 309 310 310 310 310 310 311 311 311 311 311 312 311 311 311 311 311 311 311 311 311 311 311 311
323 323 324 325 325 326 325 325 325 325 325 326 325 325 326 325 324 323 321 319 318 317 316 316 315 312 310 309 309 309 310 310 310 310 311 310 310 309 309 310 311 311 310 309 308 308 309 310 311 311 311 311 311 311 311 311 311 311 311 312 311 311 311 311 311 311 311 311 311 310 310 310 310 310
324 323 321 322 324 325 325 325 325 325 325 325 325 325 325 325 324 323 322 321 320 319 318 317 316 313 310 309 309 310 311 311 311 312 312 312 312 312 312 312 312 312 312 311 311 311 312 312 312 312 312 312 312 312 312 312 312 312 312 312 312 312 312 312 311 311 311 311 311 310 310 309 309 309
323 322 320 320 322 324 325 326 326 325 325 325 325 325 325 324 324 323 322 322 321 320 319 318 316 314 311 310 310 311 311 311 312 313 313 313 313 314 313 313 314 313 313 312 312 313 313 313 313 313 313 313 313 313 313 313 313 313 313 313 313 312 312 312 312 312 312 311 311 310 309 309 308 308
321 320 319 319 321 324 325 325 326 326 326 325 325 325 325 324 323 323 322 321 321 320 318 318 316 313 311 310 310 311 312 312 312 313 313 313 313 313 313 314 314 314 314 313 313 313 313 313 313 313 313 313 314 314 314 313 313 313 313 313 313 313 313 313 313 312 312 311 311 310 309 308 308 308
320 319 319 319 321 324 325 325 326 326 325 325 325 325 325 324 323 322 320 319 319 318 317 316 315 313 311 311 310 311 312 313 314 313 313 313 313 313 314 314 314 314 314 314 314 314 314 314 313 314 314 314 314 314 314 314 314 314 314 314 314 314 313 313 313 312 312 311 311 310 309 308 308 308
318 319 319 319 321 324 324 325 326 325 325 325 324 324 323 323 322 321 318 317 317 317 316 315 314 313 312 311 311 312 313 314 314 314 314 314 315 314 314 315 315 315 314 314 315 315 314 314 314 314 314 314 314 314 314 315 315 315 315 314 314 314 314 313 313 312 312 311 310 310 309 308 308 307
318 319 318 318 320 323 325 326 326 325 324 324 323 322 322 321 321 320 318 317 316 316 315 314 313 313 313 312 312 313 314 314 314 314 314 315 315 314 315 315 315 315 315 315 315 315 315 314 314 314 314 314 314 314 315 315 315 315 315 315 314 314 314 313 313 312 312 311 310 310 309 308 308 307
319 318 318 316 318 323 325 325 324 323 323 322 322 321 321 320 319 318 317 316 315 315 314 313 313 314 314 314 314 314 314 313 313 313 314 314 314 314 314 315 316 316 316 315 315 315 315 315 314 314 315 315 315 315 315 315 315 315 315 315 315 314 314 313 313 312 312 311 311 310 309 309 308 307
319 318 317 316 318 322 325 325 324 323 322 322 322 321 321 320 319 319 317 317 317 317 317 317 317 318 318 318 317 317 316 315 315 315 315 315 315 315 316 316 317 317 317 317 316 316 315 315 315 315 316 316 316 315 315 315 315 315 315 315 315 315 314 314 313 312 311 311 310 310 309 309 308 307
319 318 318 318 318 320 323 324 323 323 322 322 322 322 321 321 320 319 319 319 319 319 318 319 319 319 319 319 319 319 318 318 318 318 318 318 318 317 317 318 318 318 318 317 316 316 315 315 315 315 316 316 316 316 316 315 315 315 315 315 315 315 314 313 313 312 311 310 309 309 309 308 307 307
319 319 319 319 318 319 320 321 320 320 320 320 321 321 321 321 320 320 320 319 319 319 318 318 318 318 318 318 318 318 318 318 318 318 318 318 318 318 317 317 317 317 317 317 316 316 316 316 315 315 316 315 315 315 315 315 315 315 315 315 314 314 314 313 312 310 309 307 306 307 307 307 306 306
320 320 320 319 319 318 318 318 318 318 319 319 319 319 319 319 319 319 318 318 317 317 317 316 316 316 316 315 315 315 315 315 316 316 316 316 316 316 316 316 316 316 315 315 315 315 316 316 316 317 317 316 316 316 316 316 316 315 315 314 313 312 312 311 311 309 307 305 304 305 305 304 304 304
319 320 319 319 318 318 318 317 317 318 318 318 318 318 318 318 318 318 318 317 317 317 317 316 316 316 316 316 316 316 316 316 316 316 316 316 316 316 316 316 316 316 316 316 315 316 316 316 316 316 316 316 316 316 315 315 315 315 314 313 312 312 311 311 311 310 307 305 304 303 302 301 301 301
319 319 318 318 318 318 318 318 317 317 318 318 318 318 318 318 318 318 318 318 318 317 317 317 318 318 318 318 318 318 318 318 318 318 318 318 318 318 318 318 318 318 317 317 317 317 316 316 316 315 314 314 314 314 314 314 314 313 313 313 312 312 311 311 310 308 306 304 303 302 300 300 299 299
318 318 319 319 319 319 319 318 318 318 318 318 318 318 318 318 318 318 318 318 318 317 317 317 318 319 319 319 319 320 319 319 319 319 318 318 318 318 318 317 316 316 316 316 315 314 314 314 314 313 312 313 313 313 312 312 312 312 312 312 312 312 311 311 309 307 305 304 303 302 300 299 298 298
319 319 320 320 320 319 319 318 318 318 318 317 317 317 317 317 317 316 316 316 315 315 315 315 315 316 316 316 316 316 316 315 315 313 312 311 310 310 310 309 309 309 309 309 309 310 311 312 312 312 313 313 312 312 312 312 312 312 312 311 311 311 310 310 308 307 305 303 302 301 300 298 298 298
318 318 319 318 317 317 316 316 315 315 314 313 312 312 312 311 310 309 309 308 307 307 306 306 306 306 305 305 305 305 305 304 304 303 302 302 302 302 303 304 304 304 305 305 306 308 309 310 310 311 312 312 312 312 312 311 311 310 310 310 310 310 310 309 308 306 304 303 302 301 300 299 299 298
316 316 315 315 314 313 312 311 310 309 308 306 306 305 304 304 303 302 301 301 301 300 300 300 300 300 300 300 300 300 300 300 300 300 300 300 300 301 302 303 304 305 305 306 306 306 307 308 308 309 310 310 310 311 310 310 309 309 309 309 309 309 310 309 307 306 304 303 302 301 301 300 299 298
311 310 309 308 308 306 305 304 303 302 301 301 300 300 300 299 299 299 299 299 300 300 300 300 300 300 300 300 300 300 300 300 300 300 300 299 299 299 299 300 302 304 304 305 305 306 306 307 307 308 308 308 309 309 309 309 308 308 308 308 308 308 308 307 306 305 304 303 302 301 301 300 299 298
302 302 301 301 301 300 300 299 299 299 299 299 299 299 299 300 300 300 300 301 301 301 301 301 301 301 300 300 300 301 300 300 300 299 299 298 298 298 298 299 301 303 304 305 306 306 306 307 307 307 307 307 307 307 307 307 307 307 307 307 307 307 307 306 305 304 303 302 301 301 300 299 298 298
299 299 299 298 298 299 299 299 299 299 300 300 300 300 300 300 301 301 301 301 301 301 301 301 301 301 301 301 301 301 301 300 299 299 298 298 298 298 299 299 300 302 305 306 306 306 306 305 305 305 305 305 305 306 306 306 306 306 306 306 306 306 305 305 303 303 302 301 301 300 299 298 298 297
298 298 299 299 299 300 300 300 301 301 301 301 301 301 301 301 300 300 300 300 301 301 301 301 301 301 301 301 301 301 300 300 299 299 299 299 299 299 299 299 300 302 304 306 306 305 304 303 303 303 304 304 304 305 305 305 305 305 305 306 305 304 304 303 302 302 301 301 300 299 298 298 297 297
299 299 300 300 300 300 301 301 301 301 301 301 300 300 300 299 299 299 299 299 299 300 300 301 301 301 301 301 300 300 299 299 299 299 299 299 299 299 299 299 300 302 303 304 304 303 302 302 302 303 303 303 304 304 304 304 304 304 304 304 304 303 303 302 302 301 300 300 299 298 298 297 297 297
299 300 300 300 300 300 300 300 300 300 300 300 299 299 298 298 298 298 298 298 298 299 299 299 300 300 300 300 299 299 299 298 298 298 298 298 299 299 299 300 301 302 302 302 302 302 301 302 303 303 302 302 303 303 303 303 302 302 302 302 302 302 301 301 301 301 300 299 299 298 298 297 297 297
300 300 300 300 300 300 300 300 300 300 299 299 298 298 298 298 298 298 298 298 298 298 299 298 299 299 299 299 298 298 298 298 297 298 298 298 298 298 298 299 300 302 302 302 302 302 302 303 303 303 302 302 302 302 302 301 301 300 300 300 300 300 300 300 300 300 300 299 299 298 297 297 297 297
300 300 300 300 300 300 300 300 300 299 298 298 298 298 298 298 298 298 298 299 298 298 298 298 298 298 298 298 298 298 297 297 297 297 297 297 297 297 297 298 299 300 301 302 302 302 302 302 302 302 302 302 301 301 301 300 300 299 299 299 299 300 300 300 299 299 299 298 298 297 297 297 297 296
300 300 300 300 300 300 299 299 298 298 298 298 298 298 298 298 299 298 298 298 298 298 298 298 298 298 298 298 298 298 298 297 297 297 297 297 297 297 297 297 298 298 300 300 301 301 301 301 301 300 300 300 300 299 299 299 299 298 298 298 298 299 299 299 298 298 297 297 297 297 297 297 296 296
299 299 299 299 299 299 298 298 298 298 298 298 298 298 298 298 298 298 298 298 298 298 297 297 297 297 297 298 298 298 298 298 297 297 297 297 296 296 297 297 298 298 299 299 299 299 300 300 299 299 299 298 298 297 297 297 298 297 297 297 297 298 298 298 298 297 297 297 297 297 297 296 295 295
298 298 298 298 298 298 298 298 298 299 298 298 298 298 298 298 297 297 297 297 297 297 297 297 297 297 297 297 297 297 297 297 297 297 297 297 296 296 296 297 298 298 298 298 298 298 299 299 298 298 297 297 297 296 296 296 297 297 297 297 297 297 297 297 297 297 297 297 297 296 296 295 294 294
297 297 297 297 297 297 298 298 298 298 298 297 297 297 297 297 297 296 296 296 296 296 296 296 296 296 296 296 296 296 296 297 297 297 297 297 296 296 296 297 297 297 297 297 297 298 298 298 297 297 297 297 296 296 297 296 296 296 296 297 297 297 297 297 297 297 297 297 296 296 295 295 294 294
297 297 296 296 297 297 298 298 298 297 297 297 297 296 296 296 296 296 296 296 296 295 295 295 295 295 295 295 295 294 295 295 295 295 295 295 295 295 295 296 296 296 296 296 296 296 296 296 296 296 296 296 296 296 296 297 296 296 296 296 296 297 296 296 296 296 296 296 296 295 295 294 294 294
297 297 296 297 297 297 297 297 297 296 296 296 296 296 296 296 295 295 295 295 295 294 294 294 294 294 294 294 293 293 293 294 294 294 294 294 294 294 295 295 295 296 296 296 295 295 295 295 295 295 295 295 296 296 296 296 296 296 296 296 296 295 296 296 296 296 296 295 295 295 295 294 294 294
296 296 297 297 297 296 296 296 296 295 296 296 296 296 295 295 295 294 294 294 294 294 294 294 293 293 293 293 293 293 293 293 293 293 293 293 293 294 294 294 294 295 295 295 294 294 294 294 294 295 295 295 295 295 295 296 296 296 296 296 295 295 295 295 295 295 295 295 295 295 294 294 294 293
296 297 297 296 296 295 295 295 295 295 295 295 295 295 295 294 294 294 294 294 293 293 292 292 292 292 292 292 292 292 292 292 292 292 292 292 293 293 293 293 293 293 293 294 294 294 294 294 294 294 294 294 294 295 295 295 295 295 296 295 295 295 295 294 294 294 294 294 294 294 294 293 293 292
296 296 296 295 295 295 295 295 295 295 294 294 294 294 294 293 293 293 293 293 292 292 292 291 291 291 291 291 291 291 291 291 292 292 292 292 292 292 292 292 292 292 293 293 294 294 294 294 294 294 294 294 294 294 295 295 295 295 296 295 295 295 295 294 294 293 293 293 293 293 293 293 292 292
296 296 295 295 295 295 295 294 294 294 293 293 293 293 293 293 293 292 292 292 292 291 291 291 291 291 291 291 291 291 291 291 291 292 292 292 292 292 292 292 292 292 292 293 293 294 294 294 294 294 294 294 294 294 295 295 295 295 296 295 295 295 295 294 294 294 294 293 293 293 294 293 292 292
296 296 295 295 295 295 294 294 293 293 292 292 292 292 292 292 292 292 291 291 291 291 290 290 290 290 290 290 290 290 290 291 291 291 291 292 292 292 292 292 292 292 292 293 293 294 294 294 294 294 294 294 294 294 295 295 295 295 295 295 295 295 295 294 294 294 294 294 294 294 294 293 292 293
Wind_Speed
15 15 15 14 14 14 14 15 15 14 14 15 16 19 20 20 22 23 24 22 20 18 15 12 10 9 8 6 5 7 9 8 7 7 7 7 7 8 9 9 8 6 6 5 5 4 4 3 3 2 2 1 1 2 2 2 2 3 3 3 4 4 5 5 6 7 8 8 9 10 10 11 11 11
15 15 15 15 14 15 15 16 16 15 16 16 16 18 21 21 17 16 21 24 21 18 16 13 11 9 8 8 7 8 10 9 8 8 8 8 8 9 9 9 8 7 6 6 5 4 4 3 2 2 1 1 1 1 1 2 2 2 3 3 3 4 4 5 6 7 8 8 9 10 10 11 11 12
16 15 16 16 15 15 16 17 16 16 17 17 16 18 20 22 18 12 14 20 20 17 15 12 11 10 8 7 8 10 12 11 9 9 9 9 10 10 10 9 8 7 6 6 5 4 4 3 2 2 1 1 0 1 1 1 2 2 2 3 3 4 4 5 6 6 7 8 8 9 10 11 11 12
16 15 15 16 15 15 15 16 16 16 18 18 18 20 20 21 20 15 13 16 16 15 15 12 11 11 10 8 8 11 13 12 11 10 10 11 11 11 10 9 8 8 7 7 6 5 4 3 3 3 2 2 1 1 1 2 2 2 3 3 4 4 4 5 5 6 7 8 9 10 10 11 12 12
15 15 14 15 14 14 15 16 17 17 19 21 21 22 22 21 22 20 17 17 16 14 15 14 13 13 12 10 9 12 14 12 11 11 12 12 12 11 11 10 9 9 8 7 6 5 5 5 4 4 4 4 4 3 4 4 4 5 5 5 6 5 6 6 6 7 8 9 10 10 11 12 12 13
13 13 14 14 13 13 15 16 17 17 20 23 25 25 24 21 21 19 19 20 20 17 14 14 15 16 14 11 10 12 13 12 11 11 12 12 12 12 12 11 10 10 9 9 8 7 7 7 7 6 6 6 7 7 7 7 7 8 8 8 8 8 8 8 9 9 10 10 11 11 12 13 13 14
12 13 13 13 12 13 14 15 16 16 18 22 25 26 26 22 19 17 19 22 23 21 17 14 15 17 16 13 11 11 12 12 11 11 11 12 12 13 13 12 11 10 10 10 10 9 9 9 9 9 9 9 9 9 10 10 10 10 11 10 11 11 12 12 12 12 13 13 13 13 14 15 15 15
12 12 13 12 12 13 13 14 15 16 17 20 22 24 26 25 20 16 15 18 22 22 18 15 14 16 16 14 11 11 12 13 13 11 10 11 12 13 13 12 11 10 10 11 11 11 11 11 11 10 10 10 11 11 12 13 13 13 13 13 13 14 14 15 15 16 16 15 15 15 15 16 16 16
9 9 10 10 11 12 13 14 16 16 17 18 20 22 24 24 21 17 14 14 17 18 17 15 15 16 17 15 12 11 13 14 14 12 10 9 10 11 12 12 11 10 11 12 13 13 13 12 12 11 11 12 13 14 15 15 15 15 16 16 16 16 17 17 18 18 18 18 17 17 17 17 17 17
8 6 6 8 9 12 14 15 16 16 17 18 19 21 23 24 22 20 17 14 14 15 15 15 15 16 17 16 13 11 12 15 14 12 11 10 9 10 11 11 11 10 11 13 13 13 13 12 12 13 13 14 15 16 17 17 17 17 18 18 19 19 19 19 20 19 19 19 18 18 18 18 18 18
9 5 5 6 8 10 12 14 15 16 17 18 19 20 23 25 23 21 19 17 15 15 16 16 16 16 17 16 13 11 12 14 14 13 13 12 11 11 11 11 11 11 12 13 14 14 15 15 15 15 16 17 18 18 19 20 20 19 20 20 20 20 20 20 20 20 19 19 19 19 19 19 19 19
8 6 4 5 7 9 11 14 15 16 17 17 18 19 20 22 21 19 19 19 17 16 18 18 16 16 16 15 14 13 13 16 15 14 14 15 15 15 14 14 14 14 14 15 16 17 17 18 18 18 19 20 20 20 20 21 21 21 21 21 20 21 22 22 21 21 20 20 20 20 20 20 20 20
7 6 4 4 7 9 10 13 15 15 16 16 17 17 17 18 19 18 18 19 18 18 19 19 17 17 17 17 17 16 15 15 13 12 14 15 15 15 16 17 18 19 19 19 20 20 19 19 19 20 22 22 22 22 22 23 23 23 22 22 22 23 23 23 23 22 22 22 21 21 21 21 21 20
7 7 4 3 6 8 9 12 15 15 15 15 14 14 16 17 16 15 17 19 18 17 18 18 18 18 18 17 17 17 16 15 15 15 17 17 15 16 19 20 20 21 23 24 25 24 22 21 21 22 24 24 24 25 25 25 25 25 26 25 25 25 25 24 24 24 23 23 22 22 22 22 21 20
8 8 6 4 6 9 10 12 14 14 13 12 11 11 14 14 11 11 15 17 17 18 19 19 20 19 18 18 19 19 19 19 19 19 20 20 20 21 22 23 22 22 23 26 29 28 25 25 25 26 26 26 27 27 27 26 27 27 28 28 28 28 27 26 25 25 25 24 24 23 23 23 22 20
9 9 7 3 5 9 10 10 11 12 12 10 9 10 11 11 8 9 12 15 15 16 18 19 19 18 17 17 19 21 22 23 24 25 25 25 25 24 23 24 25 24 24 27 30 30 28 28 30 30 29 30 30 30 29 29 29 29 30 31 30 30 29 28 27 26 26 25 25 24 24 23 22 20
11 10 7 4 5 8 10 9 8 10 12 10 10 12 13 11 11 11 13 14 14 13 14 14 13 12 11 10 11 14 17 19 22 23 24 24 24 24 24 26 28 28 28 30 33 34 32 31 34 35 33 33 33 32 32 32 32 32 32 32 32 32 32 31 29 28 27 27 26 25 24 23 21 20
12 10 8 5 6 8 9 8 7 9 11 11 11 13 13 12 11 11 11 13 13 13 13 13 12 12 11 11 11 12 13 15 17 17 18 19 20 22 24 25 26 27 28 28 31 34 34 33 36 37 35 34 35 34 34 34 34 34 34 35 35 34 33 32 31 30 29 28 27 26 24 22 20 20
13 11 10 8 8 9 9 8 8 9 9 10 10 11 12 12 13 13 12 12 13 14 14 15 15 15 15 15 16 16 16 17 18 19 20 20 21 23 24 24 24 24 25 25 27 32 33 32 33 35 33 33 34 33 32 33 35 35 36 38 37 35 34 32 31 31 29 27 26 25 22 20 19 20
14 13 12 11 10 10 10 9 10 10 10 9 9 9 9 11 13 14 14 14 14 15 16 17 18 18 19 19 20 20 20 21 21 22 23 24 25 27 28 28 28 27 27 26 26 29 31 30 31 32 32 33 34 33 32 33 33 35 38 40 37 33 31 30 31 31 28 27 26 23 20 18 18 18
15 14 12 12 11 10 9 9 10 10 10 9 9 9 9 9 10 11 12 13 13 14 16 17 18 20 21 21 22 23 24 24 25 25 25 26 27 28 29 30 30 29 29 28 26 28 30 29 28 29 29 31 32 32 32 33 34 36 38 37 33 29 29 33 34 32 30 29 26 21 16 14 15 16
14 14 13 12 11 11 10 10 10 10 10 10 10 10 10 11 12 12 13 14 15 16 17 18 19 20 20 21 22 23 24 26 27 27 28 28 29 30 30 31 31 31 31 29 28 29 29 29 30 32 33 34 35 33 30 31 33 34 34 32 31 32 36 38 34 29 27 27 22 17 14 13 13 15
14 14 13 12 11 11 11 11 11 11 12 13 13 14 14 15 15 16 17 18 18 19 20 21 22 22 23 23 24 25 25 26 28 28 29 30 31 32 33 32 33 33 32 30 29 28 28 30 32 32 30 32 34 32 28 28 29 29 29 30 32 33 34 32 29 27 27 25 20 16 14 11 11 12
14 14 13 12 11 10 11 11 11 12 13 13 14 15 16 17 17 18 19 19 20 20 21 22 23 24 25 26 27 27 28 29 30 30 30 30 31 32 33 33 33 33 32 30 28 26 26 28 28 24 23 27 30 30 27 27 27 25 25 27 29 29 27 25 26 27 26 22 18 16 11 8 9 11
14 13 12 11 11 10 10 10 11 12 12 13 14 15 16 17 17 17 18 19 20 21 21 22 23 23 24 25 26 27 27 28 29 29 29 28 27 28 29 29 30 30 28 27 25 23 23 24 23 21 21 23 25 26 25 24 24 22 22 22 24 25 25 26 27 26 23 20 19 16 11 9 10 11
13 12 11 11 11 11 11 12 13 13 14 15 15 16 16 17 17 17 18 18 18 19 19 19 19 20 20 21 22 23 23 24 24 25 25 25 25 25 25 25 26 26 25 23 21 20 20 21 20 19 19 19 20 21 22 22 22 21 20 19 19 20 22 25 26 24 21 21 20 16 13 12 11 10
11 10 11 12 12 13 13 14 14 14 14 14 14 14 14 14 14 14 15 15 14 14 14 15 16 17 18 19 20 20 20 20 21 21 22 23 23 23 24 24 24 23 22 20 18 16 16 17 17 16 16 17 18 19 19 20 21 20 19 18 17 16 17 19 21 21 21 21 19 15 13 12 10 9
8 9 10 11 11 11 10 10 10 10 10 10 10 10 10 10 10 11 11 11 11 12 12 13 14 15 17 18 18 18 19 19 20 21 21 22 23 23 23 23 21 19 17 16 15 14 14 14 14 14 15 15 16 17 18 19 19 19 19 18 17 16 16 18 20 20 21 20 17 13 11 10 10 11
6 7 7 7 7 7 6 6 7 7 6 6 6 7 7 8 8 9 9 10 11 11 12 13 13 14 16 17 18 18 19 20 22 23 22 21 21 21 22 22 20 16 12 13 14 14 14 15 15 15 15 15 16 17 17 18 18 17 17 18 16 16 18 19 19 19 19 18 14 11 10 11 12 11
7 7 7 8 7 7 6 6 5 5 4 5 6 7 8 8 9 9 9 10 11 11 12 13 14 15 16 17 17 18 20 20 21 21 21 20 19 19 20 20 18 15 12 12 13 15 17 18 17 16 15 16 16 16 15 15 15 15 15 16 14 13 15 18 18 18 17 15 12 10 12 13 13 12
10 10 10 10 9 8 7 6 5 4 4 5 6 7 7 7 7 7 8 9 10 10 11 12 13 14 15 16 17 19 20 19 18 18 18 18 18 17 18 18 17 16 15 15 16 18 19 18 15 14 15 16 16 16 14 14 14 14 15 15 14 14 15 16 17 17 15 14 12 13 15 16 15 13
12 12 11 10 8 7 6 5 4 4 4 4 4 5 5 5 5 6 7 7 8 9 10 11 12 13 15 16 17 19 20 20 19 17 17 17 18 17 17 17 17 16 16 16 17 18 18 16 14 12 14 16 17 16 15 14 14 14 14 13 14 15 15 14 14 15 15 15 15 17 18 17 14 12
12 11 10 8 7 6 5 4 3 3 3 4 4 4 4 5 5 6 6 7 8 10 11 12 13 15 16 17 18 19 19 19 19 18 17 18 18 17 17 17 17 16 14 13 14 15 16 16 14 12 13 16 17 16 14 13 13 13 14 13 13 13 13 12 11 12 13 15 17 17 16 15 13 11
10 9 8 7 6 5 4 3 2 3 3 4 4 4 5 6 6 7 7 8 8 9 10 12 13 14 15 16 17 17 17 18 18 17 17 18 18 18 17 17 16 15 12 10 9 11 13 15 15 14 15 16 16 14 13 12 12 11 11 11 12 12 13 13 12 12 13 15 15 15 15 13 11 10
8 7 6 6 4 3 2 2 3 3 4 3 4 4 5 6 6 7 7 7 8 9 10 10 11 12 13 14 15 15 16 16 16 15 15 14 15 15 15 15 13 11 9 8 9 11 12 13 14 14 14 14 13 12 10 10 10 9 9 10 13 14 14 13 12 12 13 13 14 14 13 11 10 8
5 5 4 3 2 0 1 2 4 4 4 5 5 5 6 6 6 6 7 8 9 10 11 12 13 13 13 14 14 14 13 13 13 13 13 14 14 14 12 11 10 7 6 7 9 9 10 10 11 12 11 11 11 10 10 9 9 9 9 11 13 14 12 11 11 13 13 13 12 12 11 8 6 5
3 3 2 1 1 2 3 4 5 5 5 6 6 6 6 6 7 8 9 10 10 11 12 13 13 14 14 13 12 12 12 11 12 13 13 12 12 12 11 10 9 7 6 7 7 7 8 9 9 9 8 8 8 8 8 8 9 9 9 8 9 9 9 10 12 13 13 12 11 9 8 5 4 4
1 2 2 3 3 4 4 5 5 5 5 5 6 6 7 8 9 10 10 10 10 11 11 12 13 13 14 14 14 13 12 11 11 12 12 11 11 12 12 11 10 8 7 7 7 6 7 7 7 6 7 7 6 7 7 6 8 9 8 7 7 7 7 9 11 12 12 11 9 7 6 5 5 5
1 2 3 4 4 3 4 5 4 5 6 6 7 8 8 9 9 9 9 9 10 10 11 12 13 14 14 14 15 15 15 13 12 12 13 13 14 14 12 10 9 8 7 7 7 7 7 7 7 7 8 7 7 7 7 6 6 8 9 8 8 8 8 9 10 10 11 9 7 7 7 6 5 6
1 2 4 5 5 5 5 5 6 6 7 8 8 8 8 8 8 8 9 9 10 10 11 11 12 13 14 14 15 16 17 17 16 15 15 15 15 15 13 11 9 8 8 8 8 8 8 8 8 8 7 6 5 5 5 5 6 8 8 7 6 6 7 7 6 6 7 6 5 6 6 5 4 6
1 3 5 6 6 6 6 7 7 8 8 8 8 8 8 8 8 9 10 10 11 11 12 13 13 14 15 16 16 17 17 17 16 15 14 14 13 13 12 11 10 9 8 8 8 8 8 9 9 9 8 8 7 7 6 6 6 8 8 5 4 4 3 3 2 3 4 4 4 5 4 2 4 7
2 4 6 8 8 8 8 7 8 8 8 8 8 8 8 8 8 9 10 11 11 13 14 15 16 16 17 17 17 17 17 16 15 14 13 11 11 11 11 11 10 10 9 9 9 9 9 10 11 11 11 11 10 9 8 8 8 9 9 6 6 5 3 1 1 2 4 4 5 4 3 3 4 4
2 5 8 10 9 8 8 7 7 7 8 9 9 10 10 10 10 10 10 11 13 14 15 16 16 17 17 17 16 15 15 14 13 13 13 12 12 11 11 12 11 11 10 10 10 10 10 11 11 11 10 10 8 7 7 7 6 7 8 7 7 6 3 2 3 3 2 3 4 4 3 1 0 2
6 9 10 10 8 7 7 7 7 8 9 10 11 11 11 11 11 12 12 12 13 14 15 15 15 15 15 14 14 13 13 12 13 13 13 13 12 12 11 11 11 11 11 11 10 10 11 11 11 9 8 7 6 5 4 2 2 3 5 6 7 6 4 4 4 4 4 5 5 5 3 1 1 2
11 11 10 9 8 7 7 7 8 9 11 11 11 11 11 11 11 12 12 12 12 13 14 13 13 13 13 12 12 12 11 10 11 11 12 12 12 12 11 10 11 12 12 11 10 10 9 8 8 7 6 5 3 2 2 3 4 4 5 6 7 6 5 4 4 4 4 4 5 4 3 2 2 0
Wind_Direction
208 211 213 213 211 209 206 206 209 210 211 215 214 210 208 199 188 184 187 195 205 210 216 220 209 200 209 229 251 230 212 208 212 216 209 199 199 198 188 184 184 178 176 173 164 152 140 133 128 119 112 93 77 64 48 38 29 19 11 6 0 357 354 352 352 351 350 350 350 349 347 347 347 346
205 209 212 212 211 209 206 205 209 211 207 209 213 213 212 209 204 199 192 193 203 208 208 214 215 209 208 214 230 226 213 212 215 213 211 203 197 199 195 190 189 187 185 180 169 157 146 145 149 150 163 147 67 48 41 34 26 20 12 8 5 360 357 356 353 351 349 347 346 346 345 344 343 342
206 209 212 212 210 206 207 207 208 212 207 203 206 209 207 204 208 219 205 195 200 207 208 211 215 223 228 223 225 221 214 214 215 212 212 206 199 198 199 198 198 197 195 189 178 171 168 171 179 189 208 221 293 10 25 21 14 11 8 8 7 3 2 0 356 352 349 346 344 343 343 341 339 337
204 209 210 210 210 207 208 209 209 211 209 203 201 201 202 203 207 214 214 207 206 208 215 223 222 223 231 240 236 219 214 217 216 212 212 210 205 201 202 205 207 208 207 202 194 190 192 199 209 217 223 232 248 276 301 314 323 332 338 343 347 348 349 349 348 345 342 342 340 339 339 338 336 332
200 206 209 209 210 208 206 210 210 209 207 205 203 201 204 207 209 216 220 218 218 213 215 225 228 225 228 240 240 220 215 221 219 216 217 214 211 208 207 212 216 217 218 216 211 210 215 224 232 237 242 248 257 270 282 290 299 306 312 316 318 320 323 325 327 328 328 329 329 330 330 329 329 327
195 201 209 210 209 206 206 210 211 207 206 207 205 206 211 209 206 218 225 223 225 225 221 220 222 225 231 239 238 224 219 225 230 230 230 225 220 215 213 216 218 221 225 227 227 226 230 237 243 251 255 258 263 268 276 283 289 294 298 301 303 306 308 310 312 312 313 315 317 318 319 318 319 320
196 198 206 209 206 203 204 207 208 206 206 209 208 209 214 210 204 217 227 226 228 230 226 221 220 223 230 235 236 229 225 230 237 240 240 236 232 229 225 222 220 224 228 231 234 236 239 245 251 256 260 263 267 270 275 280 284 287 291 295 298 299 300 302 303 303 303 304 307 309 311 311 312 313
196 201 208 210 207 204 204 203 204 207 209 212 214 214 215 212 209 218 227 225 228 230 229 229 228 228 232 236 234 228 227 228 228 231 234 234 235 236 237 233 228 228 231 234 237 239 241 247 252 256 261 265 270 273 277 280 282 285 288 290 292 293 294 294 295 296 296 296 297 301 304 305 306 306
179 190 205 213 215 214 212 208 206 209 212 215 217 216 216 213 211 214 219 220 224 230 235 237 235 230 230 234 235 229 225 221 215 212 219 226 230 234 239 241 238 234 234 231 231 234 238 245 252 257 263 270 274 277 279 280 282 284 286 287 287 288 289 290 291 291 291 290 291 292 296 299 301 302
173 177 199 214 222 222 219 216 213 213 213 214 216 215 214 213 211 211 215 219 222 228 236 241 241 236 229 229 234 230 220 218 216 218 221 221 224 231 241 247 246 244 241 233 229 235 242 248 256 261 266 271 273 275 277 278 280 281 281 282 283 284 286 287 287 286 286 287 286 286 289 294 298 299
183 194 214 225 225 220 217 216 217 216 212 212 214 215 217 217 212 209 216 221 222 226 235 241 244 244 236 229 231 234 226 222 227 234 236 234 235 243 252 257 258 260 255 247 244 249 253 256 259 263 267 270 272 274 275 275 276 276 276 277 279 280 282 283 282 280 281 283 283 282 284 289 294 297
182 200 226 238 227 216 213 214 215 212 210 213 215 214 219 219 211 209 217 219 218 224 234 238 238 240 240 231 226 231 233 233 236 241 245 246 247 252 260 267 268 266 261 258 259 259 261 263 266 269 272 275 276 277 277 276 274 273 273 274 275 277 279 279 278 276 277 279 280 280 281 287 293 296
181 200 217 232 221 214 212 210 209 208 208 211 212 210 213 213 210 215 219 216 215 222 230 235 233 233 236 233 229 230 234 243 252 255 256 258 259 261 266 270 270 268 265 264 263 262 263 265 270 273 273 275 277 278 278 276 274 274 273 274 275 277 278 277 276 275 275 276 278 279 281 286 292 295
178 185 191 194 193 198 202 202 202 205 205 203 202 203 203 204 211 222 219 213 216 222 227 232 233 232 232 232 235 241 246 255 261 259 260 265 266 264 265 270 272 270 268 266 265 267 267 265 267 271 274 277 277 276 277 277 276 277 275 274 273 274 276 276 275 274 273 274 275 277 279 284 290 294
176 180 189 187 177 183 191 199 202 200 193 189 195 202 202 204 217 228 219 215 219 222 226 231 235 237 238 237 242 249 255 258 257 257 259 262 264 263 264 270 273 272 271 269 267 271 273 270 269 271 275 279 278 277 279 280 279 278 275 273 272 273 275 275 274 272 271 272 273 274 277 283 289 293
177 180 186 177 171 181 188 197 201 193 177 166 173 187 192 196 204 208 209 213 215 219 224 229 233 240 245 248 249 252 255 257 257 258 260 261 263 263 263 268 274 278 280 277 273 274 275 274 273 273 277 280 279 279 280 279 277 276 276 274 273 273 274 274 271 270 268 269 271 273 276 282 287 292
181 178 178 171 170 180 187 190 190 186 181 177 178 181 182 180 179 183 192 198 200 204 211 215 219 225 232 238 241 243 247 251 254 257 260 264 267 267 268 272 278 281 281 280 278 277 275 274 272 274 279 282 281 280 280 279 277 275 273 272 271 272 272 271 269 267 265 265 267 268 272 277 284 290
178 172 169 173 172 171 175 180 176 175 185 197 203 201 201 198 195 197 199 198 200 204 209 216 224 229 231 235 238 240 243 246 249 252 256 259 262 265 269 273 276 276 276 277 278 276 274 272 271 273 278 279 278 277 278 278 276 274 272 270 268 268 268 268 267 265 261 260 260 262 267 274 281 288
177 170 167 172 172 165 164 171 172 170 179 197 208 215 220 221 223 228 229 224 221 223 228 234 241 246 249 252 255 257 257 256 255 256 257 258 259 262 266 269 270 271 272 274 276 276 275 275 275 276 278 277 275 275 275 275 274 273 272 269 265 264 265 266 265 262 258 254 253 255 261 271 280 286
176 172 172 177 176 169 168 175 180 182 187 197 207 215 221 223 227 232 236 236 235 236 239 244 249 253 256 258 260 262 263 262 261 260 260 261 262 265 267 268 270 272 274 275 277 279 280 281 281 281 280 277 276 275 274 273 272 270 269 268 266 266 269 271 268 264 258 252 250 255 262 271 277 281
178 179 177 179 180 176 176 183 191 197 202 207 214 220 223 228 231 235 240 243 246 247 248 249 251 254 256 258 260 262 264 266 267 267 267 267 268 271 273 273 274 275 277 279 281 282 283 283 283 285 286 285 283 282 280 279 279 279 277 272 267 267 278 282 275 266 255 247 248 257 267 274 275 278
184 188 185 183 184 186 188 193 199 206 214 219 225 230 234 238 241 243 246 248 250 253 255 256 256 257 259 261 263 265 267 270 272 274 275 275 276 278 280 282 282 281 281 283 284 283 282 283 285 287 290 290 288 288 288 286 287 287 282 275 269 274 283 282 269 255 246 243 243 253 264 269 271 277
190 194 195 192 193 197 201 205 208 212 219 225 230 235 240 244 246 249 250 250 251 253 255 256 256 256 258 260 262 264 267 270 273 276 278 279 279 280 281 284 286 286 286 287 286 285 285 287 290 291 292 290 289 290 292 292 292 290 285 282 282 284 286 278 261 249 245 241 241 250 259 262 269 281
196 197 200 202 205 208 212 217 222 225 229 233 237 240 243 245 248 251 253 256 258 259 260 260 259 259 261 263 264 266 268 270 273 275 278 280 281 282 282 283 283 285 287 289 291 292 290 289 291 292 289 289 292 295 295 294 295 297 295 292 290 288 285 274 259 249 242 237 241 251 252 251 266 283
196 199 204 210 215 220 226 231 237 241 244 248 250 253 255 258 261 264 267 269 270 270 270 270 269 268 269 269 270 271 272 273 274 275 277 278 280 281 283 284 284 284 286 290 294 296 294 290 290 291 289 289 294 298 299 299 300 300 298 294 290 286 280 268 256 245 237 237 247 251 249 250 260 274
195 201 210 220 230 238 245 250 254 258 261 263 266 268 271 274 276 278 279 279 278 277 276 276 276 275 275 274 274 275 275 277 277 278 278 278 279 280 281 283 285 287 291 294 295 296 295 294 296 298 298 298 298 299 299 300 300 298 295 293 290 285 276 264 250 239 236 243 249 250 251 252 255 264
211 220 229 239 247 252 257 260 263 266 268 270 272 274 276 277 278 279 280 280 281 281 280 280 280 280 281 281 282 284 285 286 287 289 291 290 288 287 284 283 284 288 294 300 302 302 302 303 305 306 305 302 299 298 298 298 297 297 296 295 291 281 268 253 240 237 243 249 249 249 251 252 252 255
227 234 239 245 249 253 256 257 260 263 265 269 271 273 275 277 279 281 282 282 281 281 283 285 287 289 291 293 296 299 302 304 305 306 307 305 302 298 295 291 287 287 294 304 309 310 310 311 313 311 309 305 301 299 300 299 297 296 295 291 282 268 252 241 238 243 248 247 244 244 246 249 251 250
227 227 227 229 231 231 233 238 244 249 253 259 266 273 279 284 287 290 289 286 285 287 290 292 295 297 299 303 308 311 312 313 313 312 311 309 304 299 297 297 292 288 293 303 306 306 308 308 308 306 304 302 299 298 298 295 292 290 288 285 279 265 251 241 237 239 240 238 237 239 239 242 245 247
202 193 184 184 189 193 198 205 214 224 237 255 270 279 285 288 287 286 285 284 285 289 291 293 295 297 301 305 309 310 311 313 314 314 312 310 307 300 295 294 293 289 288 292 297 304 309 309 308 307 305 302 299 300 298 291 286 285 284 281 273 255 243 238 235 236 237 233 230 230 232 234 235 241
170 167 167 169 175 182 188 196 210 228 250 269 280 286 292 297 300 300 300 299 297 296 295 295 297 299 302 306 307 306 309 313 315 315 315 314 312 307 300 294 290 285 281 284 292 302 309 311 312 314 314 310 306 302 298 289 282 281 282 276 261 245 241 242 239 234 228 223 223 225 227 229 234 243
161 165 168 171 175 184 195 212 234 257 276 289 297 303 309 320 325 322 316 309 301 297 294 295 296 298 300 301 302 304 308 312 314 316 318 317 315 311 305 298 293 286 281 282 287 295 300 301 300 304 310 310 306 301 295 287 278 275 274 269 259 248 246 247 242 231 221 220 224 227 228 231 239 250
161 165 170 176 185 198 214 232 251 284 315 325 327 330 332 333 331 324 316 308 301 297 298 299 299 301 303 306 310 314 318 323 327 329 328 324 321 317 308 299 293 288 284 282 284 287 290 291 289 291 300 303 300 295 287 278 270 265 261 260 258 252 245 242 239 231 228 229 229 228 229 233 240 255
169 174 181 187 194 207 224 244 277 321 344 350 348 344 341 338 335 332 327 322 318 316 316 315 314 315 317 320 323 327 330 333 337 337 333 328 325 322 317 308 297 288 286 291 293 292 294 298 299 300 301 298 294 288 279 270 263 258 254 251 248 242 238 236 235 234 234 232 227 222 223 231 246 261
177 180 184 184 185 210 251 290 333 352 1 1 355 352 352 350 348 344 340 340 342 341 339 338 337 335 334 333 332 332 333 335 339 341 339 336 333 331 327 322 314 302 296 300 302 301 303 307 309 306 299 291 284 277 268 261 257 254 249 242 236 233 234 235 232 226 218 212 212 220 231 246 261 259
167 161 162 160 151 176 318 349 4 9 13 14 14 14 11 9 7 2 2 4 2 358 357 357 354 350 346 342 337 335 335 339 343 348 351 352 350 348 341 334 335 336 325 309 303 303 308 312 315 314 305 292 281 270 259 251 251 252 249 243 239 238 236 230 217 208 206 209 223 240 254 265 263 238
146 135 127 93 54 359 350 6 19 23 26 28 30 30 26 25 26 26 25 22 14 8 7 4 1 360 359 358 355 352 350 351 352 354 357 1 3 3 359 352 351 354 344 327 319 316 314 313 315 318 313 303 294 286 274 259 251 252 253 249 241 234 226 217 210 210 218 230 244 253 257 256 241 223
105 74 26 5 356 350 2 26 42 45 46 47 47 48 45 42 41 38 32 24 17 14 15 14 14 16 15 14 14 12 7 2 357 353 355 4 13 15 10 2 355 350 341 331 324 316 311 307 304 303 305 309 315 316 308 285 260 251 247 240 231 220 212 215 220 226 236 245 250 245 235 231 227 223
7 22 11 9 15 29 54 70 72 69 70 70 64 58 53 48 43 36 29 25 25 26 26 25 25 25 23 23 25 26 22 17 11 5 2 5 10 11 5 356 347 339 329 322 319 316 316 317 313 310 312 318 322 324 321 303 262 242 233 230 232 236 238 238 241 246 249 248 244 236 227 224 229 238
15 28 33 42 58 76 88 87 78 73 73 69 62 56 50 43 37 33 33 34 34 31 28 27 26 25 24 26 27 26 23 20 19 17 13 9 6 3 357 350 343 331 321 321 327 330 329 327 324 320 318 318 313 308 311 298 258 240 237 235 237 242 246 248 255 262 254 239 234 238 233 227 246 271
17 32 52 70 84 94 95 87 77 70 66 59 53 49 44 40 38 39 40 39 36 33 31 31 30 28 27 25 23 19 15 13 13 15 13 7 1 357 352 349 346 337 327 326 329 330 326 321 316 309 303 302 297 287 288 292 270 248 241 230 198 180 191 218 254 275 263 252 256 259 255 263 283 287
11 44 74 94 101 98 87 77 70 64 60 56 52 47 45 44 43 42 42 41 38 38 37 35 33 31 27 24 21 17 12 9 8 7 3 355 350 347 344 342 341 338 334 331 328 326 322 314 309 304 300 299 297 289 289 293 277 253 241 220 178 154 148 176 234 250 253 255 253 244 247 278 284 283
61 84 98 105 102 89 75 67 64 62 60 58 55 52 48 44 44 45 45 43 41 41 39 36 33 29 25 22 19 15 12 11 9 5 358 350 345 342 340 339 337 334 330 326 323 323 321 315 311 310 306 301 292 281 280 284 266 242 229 208 183 167 152 149 151 146 159 186 191 189 203 281 302 104
106 110 112 107 95 82 74 68 66 68 66 60 56 54 50 46 46 46 44 40 39 37 36 35 32 28 24 21 18 15 14 15 15 12 6 0 355 350 347 347 347 343 336 329 323 321 320 316 314 313 309 298 279 257 250 249 202 187 186 179 171 159 144 146 153 150 155 172 180 181 194 236 143 112
110 110 108 102 93 84 75 67 67 71 72 64 55 51 49 48 49 48 43 39 38 36 36 35 33 28 23 19 17 15 16 19 22 20 15 11 9 4 357 354 353 350 346 339 333 329 327 322 319 316 308 297 279 235 161 108 104 124 144 147 142 138 137 146 152 154 172 196 196 188 196 212 198 210